User: anonymous   Login
Location: Fort Wayne
(41.1310°N, 85.1290°W)
Time: 02:00:29
(UTC-05:00)
Language:

SR - Orbit

View from above orbital plane
View from above orbital plane
View from above satellite
View from above satellite

Ground track
Ground track

The orbit data is extracted from the following two-line orbital elements,

1 00046U 60007B   14355.19124487  .00002995  00000-0  62289-3 0  8104
2 00046 066.6927 062.1151 0213998 187.3536 172.4421 14.48157599848586
Epoch (UTC): 21 December 2014 04:35:23
Eccentricity: 0.0213998
inclination: 66.6927°
perigee height: 579 km
apogee height: 884 km
right ascension of ascending node: 62.1151°
argument of perigee: 187.3536°
revolutions per day: 14.48157599
mean anomaly at epoch: 172.4421°
orbit number at epoch: 84858

The dashed part of the orbit path shows where the satellite is in the earth's shadow,  

DLR